{"data":{"norad_id":40718,"intl_designator":"2015-032D","name":"CARBONITE 1 (CBNT-1)","alt_names":[],"object_type":"PAYLOAD","status":"ACTIVE","operator":null,"country":"UK","launch_date":"2015-07-10","launch_site_code":"SRILR","launch_vehicle":null,"mission":null,"orbit_class":"UNKNOWN","rcs_meters":0.501,"size_class":null,"mass_kg":null,"dimensions":null,"purposes":["earth_obs"],"wikipedia_slug":null,"has_3d_model":false,"image_url":null,"decayed_at":null,"tle_current":{"epoch":"2026-09-20T04:55:23.942208Z","epoch_age_seconds":39993,"freshness":"FRESH","line1":"1 40718U 15032D   26263.20513822  .00000832  00000+0  10640-3 0  9999","line2":"2 40718  97.6573  77.3496 0014248 348.8045  11.2850 14.83833057603431","mean_motion":14.83833057,"eccentricity":0.0014248,"inclination_deg":97.6573,"raan_deg":77.3496,"arg_perigee_deg":348.8045,"mean_anomaly_deg":11.285,"bstar":0.0001064,"rev_number":60343,"period_min":97.045957643738,"perigee_km":607.28406056846,"apogee_km":627.21811846835,"semimajor_km":6995.3880895184,"source":"CELESTRAK","updated_at":"2026-09-20T09:00:33.964354Z"}}}